Location: Punxsutawney
(40.9447°N, 78.9903°W)
Time: 21:23:53
(UTC-04:00)

Daily predictions for brighter satellites

Satellite Brightness Start Highest point End
(mag) Time Altitude Azimuth Time Altitude Azimuth Time Altitude Azimuth
BREEZE-M DEB (TANK) 3.2 20:59:30 10° SSW 21:02:06 32° SE 21:08:05 10° ENE
SAR-Lupe-1 4.0 21:02:49 10° NNE 21:06:24 66° ESE 21:09:56 10° S
SAR-Lupe-4 3.6 21:03:35 10° NNE 21:07:08 58° ESE 21:10:39 10° S
Hubble Space Telescope 2.8 21:06:12 10° SSW 21:08:17 14° S 21:10:24 10° SE
Cosmos-2242 3.5 21:04:45 10° NNW 21:08:59 63° W 21:13:10 10° S
Cosmos 2098 Rocket 4.3 21:11:33 10° ESE 21:12:45 12° E 21:14:00 10° ENE
MOS 1 4.5 21:07:19 10° SSE 21:12:52 60° ENE 21:18:25 10° N
Helios 1A Rocket 3.0 21:09:55 10° SSE 21:13:57 84° W 21:18:01 10° NNW
Cosmos 1825 Rocket 4.4 21:13:15 10° SSW 21:17:29 54° W 21:21:45 10° N
Cosmos 1825 2.1 21:15:14 10° S 21:18:58 83° E 21:22:44 10° N
USA 307 4.0 21:15:54 10° WNW 21:19:52 38° SW 21:23:49 10° SSE
Resurs 01 Rocket 2.3 21:18:37 10° SE 21:22:42 38° ENE 21:26:49 10° N
ERBS 3.7 21:21:28 10° NNW 21:24:16 27° NE 21:27:05 10° E
Cosmos 1408 4.0 21:21:07 10° SSW 21:24:34 41° W 21:28:01 10° N
Cosmos 1656 4.0 21:19:53 10° NNW 21:25:30 70° WSW 21:31:00 10° SSE
Cosmos 1437 2.4 21:24:21 10° N 21:27:05 56° E 21:29:45 10° SSE
Ariane Rocket 3.0 21:24:19 10° SSE 21:29:22 74° ENE 21:34:27 10° N
SEDSat Delta rocket 4.3 21:27:26 10° SW 21:30:28 20° S 21:32:48 13° SE
Cosmos 2369 4.1 21:25:29 10° NNW 21:30:57 48° ENE 21:35:50 13° SE
COSMOS 2406 3.3 21:26:29 10° SSW 21:32:10 84° WNW 21:37:54 10° NNE
Cosmos 1633 3.5 21:29:06 10° SSE 21:32:14 29° E 21:35:25 10° NNE
USA 308 4.5 21:33:07 10° WNW 21:36:44 27° SW 21:40:20 10° S
Cosmos 1980 Rocket 2.9 21:32:03 10° N 21:37:20 39° ENE 21:41:41 14° SE
Cosmos 783 Rocket 4.4 21:32:33 10° SSW 21:37:44 82° ESE 21:42:57 10° NNE
Cosmos 2221 2.6 21:36:48 10° N 21:41:04 62° E 21:45:03 12° SSE
Landsat 7 4.0 21:36:45 11° SSE 21:41:08 55° ENE 21:45:47 10° N
IGS 5A 3.5 21:41:19 12° SSE 21:45:08 68° ENE 21:49:16 10° N
Cosmos 2322 Rocket 4.4 21:43:24 10° NNE 21:45:22 12° NE 21:47:19 10° ENE
Cosmos 1242 Rocket 3.3 21:45:39 10° NNW 21:49:09 51° W 21:52:34 10° S
ARIANE 5 R/B 4.2 21:47:25 15° ESE 21:49:47 22° ENE 21:53:11 10° NNE
Cosmos 1437 Rocket 4.4 21:47:05 10° NNW 21:50:32 32° W 21:54:02 10° SSW
MetOp-B 4.4 21:46:57 15° SE 21:51:18 54° ENE 21:56:32 10° N
GENESIS II 4.2 21:47:35 10° NNW 21:51:29 75° ENE 21:54:00 21° SE
Cosmos 2180 Rocket 4.4 21:47:25 10° N 21:53:38 84° E 21:59:45 10° S
ERS-2 2.8 21:52:43 10° N 21:56:18 55° WNW 21:59:51 10° SSW
Atlas Centaur 2 3.0 21:55:34 10° SSW 21:57:47 15° S 21:57:47 15° S
Cosmos 2058 3.9 21:56:30 10° SSW 22:00:31 48° W 22:04:36 10° N
Cosmos 773 Rocket 4.2 21:55:37 10° SSW 22:00:49 76° WNW 22:06:02 10° NNE
OBJECT-B 3.8 22:01:03 10° WSW 22:02:27 12° W 22:03:53 10° WNW
BREEZE-M R/B 4.0 21:58:20 10° SSW 22:04:03 24° SSE 22:05:06 22° SE
Cosmos 2151 3.4 22:03:09 22° SSE 22:05:28 42° E 22:09:29 10° NNE
Cosmos 2360 4.5 22:05:22 10° NNW 22:11:00 67° WSW 22:15:22 17° S
BREEZE M DEB (TANK) 3.3 22:09:01 10° SSW 22:11:48 45° SE 22:23:03 10° ENE
SPOT 3 Rocket 3.6 22:07:51 16° SSE 22:12:04 84° WSW 22:17:20 10° NNW
SL-16 R/B 3.7 22:08:04 10° N 22:12:32 23° NE 22:15:34 15° E
CZ-2C R/B 3.6 22:14:11 10° NNE 22:18:45 81° ESE 22:22:33 14° S
RESURS DK-1 3.1 22:15:14 10° SW 22:19:18 56° WNW 22:23:24 10° NNE
GRACE-FO 1 4.4 22:18:51 10° N 22:22:29 87° E 22:24:05 31° S
ERS-1 Rocket 3.6 22:20:45 27° ESE 22:22:52 40° ENE 22:27:34 10° N
GRACE-FO 2 4.4 22:19:18 10° N 22:22:56 88° ESE 22:24:31 32° S
Cosmos 1680 Rocket 4.3 22:27:53 29° ESE 22:28:40 30° E 22:33:11 10° NE
ATLAS 2AS CENTAUR R/B 4.0 22:21:09 10° WSW 22:28:47 50° NW 22:36:18 10° NNE
Cosmos 1076 Rocket 4.1 22:25:00 10° SSW 22:29:14 55° W 22:33:32 10° N
Spot 2 Rocket 3.5 22:27:07 30° SSE 22:29:40 69° ENE 22:34:46 10° N
BREEZE-M DEB (TANK) 3.1 22:27:38 10° NW 22:30:51 60° NNE 22:36:01 20° ESE
Cosmos 1151 Rocket 4.2 22:28:47 10° NNE 22:32:30 27° ENE 22:33:05 26° E
Cosmos 1697 Rocket 3.9 22:29:02 10° NW 22:34:10 37° WSW 22:38:27 14° SSW
Cosmos 158 Rocket 3.8 22:30:01 15° SSW 22:34:17 77° ESE 22:39:32 10° NNE
Cosmos 1933 3.4 22:30:46 10° N 22:34:47 60° E 22:35:43 46° SE
ISS -2.1 22:34:52 10° NW 22:37:50 28° NNE 22:38:58 23° ENE
Cosmos 1092 Rocket 3.9 22:33:41 20° S 22:38:14 79° E 22:44:32 10° N
Cosmos 1606 4.1 22:35:18 10° NNW 22:38:44 34° W 22:41:03 17° SSW
GP-B 3.1 22:35:08 10° N 22:39:33 65° E 22:40:51 43° SSE
SPOT 5 2.7 22:41:43 44° SE 22:42:48 59° ENE 22:47:04 10° N
Cosmos 2082 Rocket 3.5 22:37:49 10° SW 22:43:07 42° WNW 22:48:28 10° N
USA 267 3.3 22:37:43 10° NE 22:44:07 55° SE 22:50:30 10° SSW
Cosmos 371 Rocket 3.3 22:39:38 10° NNW 22:44:27 79° WSW 22:46:14 39° S
ATLAS 3B R/B 2.8 22:37:24 10° NNW 22:44:35 86° NE 22:48:21 32° SE
Cosmos 2278 3.8 22:41:39 10° NNW 22:47:18 71° WSW 22:49:51 33° S
Meteor 1-26 Rocket 4.3 22:42:47 10° N 22:48:46 71° E 22:51:02 38° SSE
Cosmos 1812 4.2 22:48:02 10° NNE 22:50:53 24° ENE 22:50:53 24° ENE
Terra 2.0 22:52:26 45° ESE 22:53:30 55° ENE 22:58:10 10° N
Okean 3 Rocket 3.8 22:53:33 48° ESE 22:53:51 49° E 22:58:11 10° NNE
Cosmos 2026 Rocket 3.9 22:51:03 26° S 22:54:52 85° E 23:01:12 10° N
Resurs 01 Rocket 3.9 22:56:09 10° SW 22:59:19 19° W 23:02:31 10° NW
Cosmos 2360 Rocket 3.7 22:55:23 10° N 22:59:57 24° NE 23:01:52 20° E
Cosmos 2333 Rocket 4.4 22:57:34 10° NNE 23:00:13 13° NE 23:02:52 10° ENE
ERBS 4.0 22:57:33 10° WNW 22:59:48 24° WSW 22:59:48 24° WSW
Cosmos 1782 2.7 23:06:46 10° N 23:10:48 87° W 23:10:52 86° SSW
USA 234 4.4 23:11:35 13° E 23:16:44 36° NNE 23:22:35 10° NW
Gbstr 26 Del rocket 3.9 23:13:43 10° NW 23:17:19 38° NNE 23:18:01 35° NE
Cosmos 1408 Rocket 4.1 23:20:29 44° ENE 23:20:29 44° ENE 23:24:01 10° NNE
Cosmos 332 Rocket 4.1 23:15:47 10° NNW 23:20:36 59° WSW 23:21:26 51° SSW
Cosmos 1980 Rocket 3.6 23:16:22 10° NW 23:21:08 29° WSW 23:23:27 22° SW
ARIANE 5 R/B 3.8 23:24:57 32° SW 23:26:00 36° W 23:30:08 10° NNW
Cosmos 2322 Rocket 2.2 23:24:54 10° NNW 23:30:31 68° ENE 23:31:22 59° ESE
Cosmos 1271 Rocket 4.2 23:33:06 10° NNW 23:36:38 31° W 23:36:49 31° W
Cosmos 1553 Rocket 3.8 23:31:28 10° N 23:37:34 84° W 23:38:54 57° S
SL-27 R/B 4.5 23:41:05 23° NNE 23:41:05 23° NNE 23:42:35 10° NNE
Cosmos 2266 Rocket 4.0 23:40:30 56° ESE 23:41:07 59° E 23:47:11 10° NNE
Meteor 2-16 Rocket 4.3 23:40:24 61° SE 23:41:12 69° E 23:47:14 10° NNE
Cosmos 1515 Rocket 3.9 23:40:30 10° N 23:44:20 60° NNE 23:44:20 60° NNE
Cosmos 1655 Rocket 3.9 23:45:49 62° SSE 23:46:53 75° E 23:53:16 10° N
Cosmos 2056 Rocket 3.4 23:44:02 10° NNW 23:49:25 74° ENE 23:49:33 73° E
Meteor 2-6 Rocket 4.0 23:46:43 10° NNW 23:52:08 76° W 23:52:32 71° SW
Cosmos 292 Rocket 4.4 23:50:05 10° N 23:54:20 45° NE 23:54:20 45° NE
